Wind_Speed
36 36 37 39 40 40 41 43 43 44 44 44 43 43 42 42 42 41 42 41 42 42 40 40 39 39 39 38 37 36 36 36 35 36 36 35 35 35 35 35 34 33 33
34 34 35 37 40 40 40 41 42 43 43 44 44 43 42 43 42 41 42 42 42 42 41 40 40 40 39 39 38 37 38 37 37 36 36 37 37 36 35 36 36 35 34
33 33 34 36 38 40 40 40 42 42 42 44 44 43 43 44 44 43 41 42 42 42 42 41 40 41 41 41 40 40 39 39 39 38 37 37 37 36 37 37 37 37 36
33 33 34 35 37 39 40 40 41 41 42 43 44 44 44 44 44 43 43 43 43 43 42 42 40 40 41 42 41 41 40 40 40 39 39 39 39 39 38 37 38 38 38
32 33 33 35 37 38 39 41 42 42 41 42 43 43 44 44 45 44 44 44 44 44 44 43 42 40 41 42 42 42 41 41 41 41 41 41 41 41 41 39 39 39 39
30 31 33 34 35 37 38 40 41 41 41 43 43 43 44 45 46 46 45 45 45 45 46 45 43 42 42 42 42 42 42 42 42 42 42 43 43 43 43 42 42 41 40
29 31 32 33 34 36 36 38 40 41 41 41 43 43 44 45 46 46 46 45 45 46 46 45 45 44 43 43 43 42 42 42 42 42 42 43 44 44 44 44 44 43 42
27 29 31 33 34 35 36 36 38 40 41 41 42 43 44 45 45 45 45 46 45 45 45 45 45 44 44 44 43 43 43 43 44 43 43 43 44 44 44 44 44 44 43
28 29 31 32 33 34 36 36 38 40 41 41 42 43 44 45 46 46 46 46 45 46 45 46 46 44 43 43 43 44 45 45 46 45 45 44 44 44 44 44 44 44 43
29 29 30 31 32 34 35 36 36 38 41 42 42 42 44 45 46 46 46 46 45 46 46 47 46 46 45 43 44 44 45 47 47 47 47 46 47 47 47 46 45 45 45
29 28 28 30 32 33 35 36 37 38 39 40 41 42 42 44 44 45 46 46 46 46 45 45 45 45 45 45 44 44 44 45 46 47 47 46 47 47 47 47 46 46 46
29 28 28 28 30 31 33 35 37 38 39 39 41 43 42 42 43 43 44 45 45 46 45 45 45 45 45 45 44 43 43 43 44 46 46 46 47 48 48 47 47 48 48
29 28 28 28 28 29 31 34 36 37 38 38 39 41 42 42 42 43 43 43 44 46 46 46 46 46 45 45 44 44 43 44 45 46 47 47 47 47 47 48 48 48 48
29 29 29 28 28 29 30 33 35 36 37 37 38 39 40 42 42 42 42 44 44 44 46 46 46 46 46 46 45 45 45 45 46 47 47 47 47 47 47 48 48 48 49
29 29 29 29 29 29 30 31 33 35 36 36 36 37 39 41 43 43 42 42 42 44 44 45 46 46 46 46 46 45 45 45 46 47 47 46 46 47 47 48 47 48 48
27 28 29 31 30 30 29 30 32 34 35 37 37 37 38 40 42 43 43 44 44 44 45 45 45 46 46 46 46 46 46 45 44 46 46 46 46 45 46 46 46 47 46
27 27 28 29 30 30 30 29 30 32 34 35 36 37 38 39 40 42 44 44 44 45 45 45 45 45 45 46 46 45 44 44 44 45 45 46 45 45 45 45 45 45 45
28 28 28 29 29 30 30 30 30 31 32 33 35 37 38 38 40 42 44 43 43 44 44 44 44 44 44 44 44 44 43 43 44 45 45 45 45 46 45 45 45 45 45
29 29 30 30 30 31 31 32 32 32 33 33 34 36 37 38 40 41 43 43 43 43 43 44 44 43 44 44 43 43 42 42 43 43 44 45 46 46 46 46 45 45 45
30 30 31 31 31 32 32 32 33 33 33 33 34 35 37 38 39 40 41 42 42 42 42 42 43 43 44 44 44 43 42 42 43 43 42 43 44 46 46 46 46 45 45
30 30 31 31 32 32 32 32 32 33 33 33 34 35 36 37 38 38 39 40 40 41 41 42 42 42 43 44 43 42 41 41 42 42 42 42 43 44 45 46 47 47 47
29 30 30 30 31 32 32 32 32 32 33 33 34 35 36 36 37 37 38 38 39 41 41 41 42 41 42 43 43 43 43 42 42 42 42 42 42 43 43 44 45 46 47
30 30 29 29 30 30 31 31 32 32 33 34 34 34 35 36 36 37 37 38 39 40 41 42 42 41 41 42 42 43 44 45 44 43 43 43 43 43 43 44 44 45 46
30 30 30 29 30 30 30 31 31 32 32 33 34 35 35 36 37 37 37 37 38 40 40 42 42 42 42 42 43 44 44 44 44 44 44 44 43 43 44 44 45 45 46
30 30 30 30 30 30 30 31 31 32 33 33 34 35 35 35 36 37 37 37 38 38 39 40 40 41 41 41 42 43 44 43 43 43 44 44 45 44 44 44 44 46 46
30 30 30 30 30 30 30 31 31 32 33 33 33 34 34 34 34 35 35 36 37 38 38 38 39 39 40 40 41 40 40 41 42 43 43 43 44 45 45 45 44 44 44
Wind_Direction
264 261 258 253 249 249 248 247 246 244 243 242 241 242 242 242 242 243 243 245 246 246 246 246 246 247 247 247 247 247 247 248 249 250 250 250 250 251 252 252 254 255 255
266 263 257 253 249 248 248 246 246 244 243 241 240 241 242 242 243 243 243 244 245 246 247 246 247 247 248 247 247 247 248 249 249 250 251 250 250 250 252 253 254 254 254
266 265 259 252 249 249 248 245 244 244 243 242 240 241 241 242 242 244 244 245 245 244 246 247 248 248 248 248 248 248 248 249 250 251 252 251 249 250 252 254 253 254 255
267 265 261 253 250 249 247 246 244 243 242 242 241 242 242 241 242 244 245 246 246 245 245 246 248 249 248 248 248 250 250 250 250 251 251 250 250 249 251 252 254 255 255
270 265 261 257 252 249 247 245 243 242 241 240 240 241 241 241 243 244 245 247 247 245 244 245 247 247 248 248 248 250 251 250 250 251 252 251 251 251 252 252 253 254 255
272 266 263 258 253 250 248 244 242 241 241 241 240 241 241 241 243 243 245 246 247 246 245 246 246 247 247 248 249 251 251 251 252 252 253 252 252 253 253 253 253 253 254
275 267 261 258 254 251 248 244 242 241 242 241 241 242 241 242 242 243 244 245 246 247 246 246 246 247 248 249 249 249 250 251 252 252 253 254 254 254 255 255 254 254 254
276 269 264 259 255 253 250 248 245 243 243 243 243 243 243 242 241 243 243 244 245 246 245 245 247 248 248 249 249 250 250 250 251 251 253 254 254 254 254 254 255 254 254
275 271 265 260 256 254 253 252 247 245 244 244 245 244 244 243 242 243 244 244 245 246 245 247 248 248 249 250 251 252 252 252 252 251 252 253 253 253 253 254 255 256 256
278 273 268 263 261 260 257 253 250 248 246 245 246 246 244 244 244 244 245 245 245 246 246 247 247 248 249 251 252 253 254 253 252 252 252 253 254 254 256 257 256 256 257
285 277 269 267 266 264 260 256 253 252 250 248 247 247 246 244 244 244 245 246 246 246 246 245 247 248 249 251 252 254 255 254 253 252 253 254 255 256 256 256 256 257 257
287 279 273 271 267 265 262 258 255 254 252 251 249 247 247 244 243 243 244 245 246 247 246 246 247 249 250 250 252 253 255 256 254 253 254 255 256 257 257 256 256 257 257
287 279 275 274 273 270 265 260 258 257 256 254 252 251 250 248 245 245 246 247 248 249 248 248 249 249 249 250 253 254 256 257 255 254 254 255 256 256 256 256 256 257 257
286 281 278 277 276 274 271 266 262 259 258 256 254 253 252 249 247 247 248 248 249 249 249 249 249 249 250 251 253 256 256 256 255 254 255 256 255 255 256 257 257 257 258
284 280 278 277 278 278 276 271 264 260 258 255 255 256 254 252 250 248 249 249 249 249 248 248 248 249 250 252 254 254 255 256 255 254 255 255 256 257 257 258 258 259 259
286 282 280 277 277 279 279 276 269 264 260 258 258 258 257 254 252 250 250 250 250 249 248 248 249 250 250 251 252 254 254 256 255 255 255 256 256 257 258 258 258 259 259
286 283 281 279 277 277 277 276 273 268 264 262 260 260 259 258 256 254 252 253 252 251 249 249 250 250 250 250 252 254 253 254 254 254 256 256 257 257 257 257 258 258 259
287 283 279 277 277 276 275 275 275 272 268 266 263 261 261 260 259 257 254 253 252 252 252 250 250 249 250 249 251 253 253 254 254 253 255 256 256 257 257 257 257 259 260
288 286 283 280 278 277 275 274 274 274 272 269 267 263 263 262 261 259 257 255 254 253 252 250 250 249 250 250 250 252 252 252 252 253 254 255 257 257 258 258 259 260 261
286 286 284 281 278 278 277 276 274 273 273 272 270 267 266 264 262 259 257 256 255 254 252 252 251 251 252 252 253 253 253 253 253 253 254 256 257 258 259 260 260 260 262
287 286 285 283 279 278 278 277 275 273 273 273 271 268 266 264 262 260 258 257 255 254 253 253 252 253 253 253 254 255 254 254 254 254 254 256 257 259 260 261 262 262 262
287 287 286 283 281 278 278 277 276 274 273 272 271 269 267 264 263 261 260 258 257 255 254 254 254 254 254 254 254 254 255 255 255 256 257 257 258 260 260 261 262 263 262
286 286 286 286 284 281 279 278 277 276 275 273 271 269 267 265 264 263 263 262 259 257 254 254 255 255 254 254 255 255 255 256 257 259 259 259 261 261 261 262 263 264 263
286 284 284 285 285 284 282 280 278 277 277 275 272 270 269 268 266 264 264 264 261 258 256 256 255 254 254 255 256 256 256 256 258 259 260 260 260 261 262 264 264 265 265
287 285 285 285 286 285 284 281 280 279 278 276 274 272 272 270 267 266 265 264 262 260 258 257 255 254 254 254 255 257 257 257 258 259 260 260 259 260 261 262 263 265 265
289 287 286 286 285 285 285 283 281 280 279 277 275 273 272 270 269 267 266 264 262 260 258 257 256 254 253 253 254 256 257 258 258 259 259 259 259 259 261 262 263 264 265
Height
5651 5651 5651 5652 5655 5658 5661 5665 5668 5672 5676 5681 5685 5690 5694 5699 5703 5707 5711 5715 5719 5723 5726 5730 5733 5737 5740 5743 5746 5749 5752 5755 5757 5760 5762 5765 5767 5770 5773 5775 5778 5780 5782
5641 5641 5641 5643 5645 5647 5650 5654 5656 5661 5666 5671 5676 5680 5685 5689 5693 5697 5701 5704 5709 5713 5717 5721 5724 5728 5731 5734 5737 5740 5743 5745 5748 5751 5753 5755 5759 5761 5764 5766 5769 5771 5773
5632 5632 5633 5634 5636 5638 5640 5643 5647 5651 5655 5660 5665 5670 5674 5679 5683 5687 5691 5695 5698 5702 5707 5710 5714 5718 5721 5724 5727 5730 5733 5736 5738 5741 5743 5746 5749 5752 5755 5757 5759 5761 5764
5624 5624 5624 5625 5627 5628 5630 5634 5637 5641 5645 5650 5655 5660 5664 5669 5674 5678 5681 5685 5688 5692 5696 5700 5704 5707 5711 5714 5717 5720 5723 5726 5728 5731 5733 5736 5738 5741 5745 5748 5750 5752 5754
5616 5615 5615 5616 5618 5620 5622 5625 5628 5632 5636 5640 5645 5650 5654 5659 5663 5667 5671 5674 5678 5681 5685 5689 5693 5697 5700 5704 5706 5709 5712 5715 5718 5721 5723 5725 5728 5730 5734 5737 5740 5742 5744
5609 5608 5607 5608 5609 5611 5613 5616 5619 5623 5626 5630 5635 5640 5644 5648 5652 5656 5660 5663 5667 5671 5675 5679 5683 5686 5690 5693 5696 5699 5702 5704 5707 5710 5712 5715 5717 5719 5722 5725 5728 5731 5733
5602 5601 5600 5601 5601 5603 5605 5607 5610 5614 5617 5620 5625 5629 5633 5637 5641 5644 5649 5653 5656 5660 5664 5668 5672 5675 5679 5682 5685 5688 5691 5694 5696 5699 5701 5703 5706 5708 5710 5713 5716 5719 5722
5595 5594 5593 5593 5594 5595 5597 5600 5602 5605 5607 5611 5615 5618 5622 5626 5630 5634 5638 5642 5646 5649 5653 5657 5661 5665 5668 5671 5674 5677 5680 5682 5685 5687 5689 5692 5694 5696 5699 5702 5704 5707 5710
5587 5586 5585 5585 5586 5588 5589 5591 5593 5596 5598 5601 5604 5608 5612 5615 5619 5622 5626 5630 5634 5638 5641 5645 5650 5654 5657 5660 5663 5666 5668 5671 5673 5676 5678 5680 5682 5685 5687 5690 5692 5695 5698
5580 5579 5578 5578 5579 5579 5581 5582 5584 5587 5589 5591 5594 5597 5600 5604 5608 5612 5615 5619 5623 5626 5630 5634 5638 5642 5646 5649 5651 5654 5657 5659 5662 5664 5666 5669 5671 5673 5676 5678 5681 5683 5686
5574 5572 5571 5571 5571 5571 5572 5573 5575 5577 5579 5581 5584 5587 5589 5592 5596 5601 5604 5607 5611 5614 5618 5622 5627 5631 5634 5637 5640 5643 5645 5648 5650 5652 5655 5657 5659 5662 5664 5666 5668 5671 5673
5567 5566 5565 5564 5563 5563 5564 5565 5566 5568 5570 5572 5574 5576 5578 5581 5585 5589 5592 5595 5599 5603 5607 5611 5615 5619 5623 5626 5629 5631 5634 5636 5638 5641 5643 5645 5647 5650 5652 5654 5656 5658 5660
5561 5559 5557 5557 5556 5556 5556 5556 5557 5558 5560 5561 5563 5565 5567 5570 5573 5577 5581 5584 5587 5591 5594 5599 5603 5607 5611 5614 5617 5620 5622 5624 5627 5629 5631 5633 5635 5637 5639 5641 5643 5645 5647
5554 5553 5551 5550 5549 5548 5547 5547 5548 5549 5550 5551 5553 5555 5556 5559 5562 5566 5570 5572 5575 5578 5582 5586 5591 5595 5598 5602 5605 5608 5610 5613 5615 5617 5619 5621 5623 5625 5627 5629 5630 5632 5634
5548 5546 5544 5543 5542 5541 5540 5540 5540 5540 5541 5542 5543 5545 5546 5548 5551 5555 5557 5560 5563 5566 5569 5573 5578 5582 5586 5590 5593 5596 5598 5600 5602 5605 5607 5609 5611 5613 5615 5617 5618 5620 5622
5542 5539 5537 5536 5535 5534 5533 5532 5532 5532 5532 5533 5534 5535 5537 5538 5540 5543 5546 5548 5551 5554 5557 5561 5565 5569 5573 5577 5581 5583 5586 5588 5590 5593 5595 5597 5599 5601 5603 5605 5606 5608 5610
5535 5533 5530 5529 5528 5527 5526 5525 5524 5524 5524 5524 5525 5525 5527 5528 5530 5532 5535 5537 5539 5542 5545 5550 5554 5557 5561 5564 5568 5571 5574 5576 5578 5581 5583 5585 5587 5589 5591 5593 5595 5596 5598
5527 5525 5523 5522 5520 5519 5518 5517 5516 5516 5515 5515 5515 5516 5517 5518 5520 5522 5524 5526 5528 5531 5534 5537 5541 5544 5548 5552 5556 5559 5562 5564 5567 5569 5571 5573 5575 5577 5579 5581 5583 5584 5586
5520 5517 5515 5514 5512 5511 5510 5509 5508 5507 5506 5506 5506 5507 5508 5509 5510 5511 5513 5515 5517 5519 5522 5526 5529 5533 5537 5540 5544 5547 5550 5553 5555 5557 5559 5561 5563 5565 5567 5569 5571 5572 5573
5512 5509 5507 5506 5504 5503 5502 5501 5500 5499 5498 5498 5497 5497 5498 5499 5500 5501 5502 5504 5506 5508 5511 5514 5518 5522 5525 5529 5532 5534 5538 5541 5543 5545 5547 5549 5551 5552 5554 5556 5558 5559 5561
5504 5501 5499 5497 5496 5495 5494 5492 5491 5490 5490 5489 5488 5488 5488 5489 5490 5491 5492 5494 5496 5498 5501 5504 5507 5511 5514 5517 5520 5522 5526 5529 5531 5533 5535 5537 5538 5540 5541 5543 5545 5546 5547
5496 5493 5491 5489 5488 5486 5485 5484 5483 5482 5481 5480 5480 5479 5479 5479 5480 5481 5482 5484 5485 5488 5490 5493 5496 5499 5502 5505 5508 5511 5514 5516 5518 5521 5523 5524 5526 5527 5529 5530 5531 5532 5533
5487 5485 5483 5481 5479 5477 5476 5475 5474 5473 5472 5471 5471 5470 5470 5470 5470 5471 5472 5474 5475 5477 5479 5482 5485 5488 5490 5493 5496 5499 5501 5504 5506 5508 5510 5512 5513 5515 5516 5517 5518 5519 5520
5479 5477 5475 5473 5471 5469 5468 5466 5465 5464 5463 5462 5461 5461 5461 5461 5461 5462 5462 5463 5465 5466 5468 5471 5474 5476 5479 5482 5484 5487 5489 5491 5494 5496 5498 5499 5500 5502 5503 5505 5505 5506 5507
5470 5468 5467 5465 5463 5461 5459 5457 5456 5455 5454 5453 5452 5451 5451 5451 5452 5452 5452 5453 5454 5455 5457 5460 5462 5465 5468 5470 5472 5474 5477 5479 5482 5483 5485 5487 5488 5489 5490 5492 5492 5493 5494
5462 5460 5458 5456 5455 5452 5451 5449 5447 5446 5444 5443 5442 5441 5441 5441 5441 5442 5443 5443 5444 5445 5446 5448 5450 5453 5455 5458 5460 5462 5464 5466 5468 5470 5472 5474 5475 5476 5478 5479 5480 5480 5481